#timestamp,LO_Frequency,Hit,StdDev 
1582004155.7,286047017.8,P
1582004175.6,286047018.1,P
1582004195.4,286047017.5,P
1582004215.3,286047017.5,Y
1582004235.1,286047000.7,P
1582004236.0,286047000.7,N
1582004255.8,286047000.0,N
1582004275.7,286047000.9,N
1582004295.5,286047002.3,N
1582004315.3,286047003.8,N
1582004335.2,286047005.9,N
1582004355.0,286047006.0,N
1582004355.9,286047006.0,N
1582004375.8,286047004.0,N
1582004395.6,286047003.8,N
1582004415.4,286047003.7,N
1582004435.3,286047001.3,N
1582004455.1,286047004.3,N
1582004475.8,286047003.4,N
1582004495.7,286047002.9,N
1582004515.5,286047005.8,N
1582004535.4,286047003.5,N
1582004555.2,286047004.2,N
1582004575.0,286047001.4,N
1582004575.9,286047001.4,N
1582004595.8,286047001.3,N
1582004615.6,286047001.8,N
1582004635.4,286047002.1,N
1582004655.3,286047001.9,N
1582004675.1,286047002.1,N
1582004695.9,286047000.3,N
1582004715.7,286046999.9,N
1582004735.5,286047001.9,N
1582004755.4,286047001.6,N
1582004775.2,286047002.7,N
1582004795.0,286047002.8,N
1582004796.0,286047002.8,N
1582004815.8,286047000.9,N
1582004835.6,286047000.3,N
1582004855.5,286047000.0,N
1582004875.3,286047002.1,N
1582004895.1,286046999.7,N
1582004915.9,286047002.4,N
1582004935.7,286047002.6,N
1582004955.6,286047002.8,N
1582004975.4,286047002.4,N
1582004995.2,286046999.8,N
1582005015.1,286047002.7,N
1582005016.0,286047002.7,N
1582005035.8,286047002.3,N
1582005055.6,286047002.2,N
1582005075.5,286047004.4,Y
1582005095.3,286047002.8,P
1582005115.2,286047002.7,P
1582005135.9,286047000.1,N
1582005155.7,286047000.6,N
1582005175.6,286047000.3,N
1582005195.4,286047002.6,N
1582005215.2,286047002.2,N
1582005235.1,286047004.2,Y
1582005236.0,286047004.2,P
1582005255.8,286047003.6,N
1582005275.7,286047004.2,P
1582005295.5,286047004.1,Y
1582005315.3,286046998.7,P
1582005335.2,286046998.6,N
1582005355.0,286047000.0,N
1582005355.9,286047000.0,N
1582005375.8,286047002.4,N
1582005395.6,286047002.3,N
1582005415.4,286047000.5,N
1582005435.3,286047000.5,N
1582005455.1,286046998.5,N
1582005475.8,286047000.7,N
1582005495.7,286047000.9,N
1582005515.5,286047001.5,N
1582005535.4,286047004.0,N
1582005555.2,286047003.4,N
1582005575.0,286047003.0,N
1582005575.9,286047003.0,N
1582005595.8,286047005.5,Y
